Herbert Island, British Columbia

3:36 AM PDT on October 22, 2017 (GMT -0700)
Herbert Island

Weather History for CWLP - January, 2013

Change the Weather History Date:

Wednesday, January 23, 2013

  Actual Average Record
Temperature  
Mean Temperature 44 °F -  
Max Temperature 46 °F - - ()
Min Temperature 41 °F - - ()
Degree Days  
Heating Degree Days 22    
Moisture  
Dew Point 39 °F    
Average Humidity 85    
Maximum Humidity 92    
Minimum Humidity 64    
Precipitation  
Precipitation 0.12 in - - ()
Sea Level Pressure  
Sea Level Pressure 29.85 in    
Wind  
Wind Speed 17 mph ()    
Max Wind Speed 33 mph    
Max Gust Speed 41 mph    
T = Trace of Precipitation, MM = Missing Value Source: Averaged Metar Reports

Daily Weather History Graph

Daily Weather History Graph

Search for Another Location

Airport or City:

Trip Planner

Search our weather history database for the weather conditions in past years. The results will help you decide how hot, cold, wet, or windy it might be!

Date:

Astronomy

Jan. 23, 2013 Rise Set
Actual Time 8:18 AM PST 5:07 PM PST
Civil Twilight 7:41 AM PST 5:43 PM PST
Nautical Twilight 7:01 AM PST 6:24 PM PST
Astronomical Twilight 6:22 AM PST 7:03 PM PST
Moon 2:17 PM PST (1/23) 5:40 AM PST (1/23)
Length of Visible Light 10h 02m
Length of Day
8h 48m
Waxing Gibbous, 90% of the Moon is Illuminated
Jan 23
Waxing Gibbous
Jan 26
Full
Feb 3
Last Quarter
Feb 9
New
Feb 17
First Quarter

Hourly Weather History & Observations

Time (PST) Temp. Windchill Dew Point Humidity Pressure Visibility Wind Dir Wind Speed Gust Speed Precip Events Conditions
12:00 AM 44.6 °F 37.2 °F 37.9 °F 77% 29.83 in - ESE 17.3 mph - 0.02 in   Unknown
1:00 AM 43.3 °F 34.7 °F 37.8 °F 81% 29.83 in - East 20.7 mph - 0.03 in   Unknown
2:00 AM 43.3 °F 34.0 °F 37.6 °F 80% 29.83 in - ESE 24.2 mph - 0.03 in   Unknown
3:00 AM 44.4 °F 34.0 °F 36.1 °F 73% 29.81 in - ESE 33.4 mph 41.4 mph N/A   Unknown
4:00 AM 45 °F - 37 °F 64% 29.81 in - SE 26.5 mph - -  
4:00 AM 45.1 °F 36.0 °F 36.9 °F 73% 29.81 in - SE 26.5 mph - N/A   Unknown
5:00 AM 45.1 °F 36.2 °F 37.6 °F 75% 29.80 in - SE 25.3 mph - N/A   Unknown
6:00 AM 44.6 °F 35.1 °F 38.5 °F 79% 29.80 in - SE 27.6 mph 33.4 mph N/A   Unknown
7:00 AM 43.3 °F 34.0 °F 39.7 °F 87% 29.79 in - SE 24.2 mph - N/A   Unknown
8:00 AM 43.2 °F 34.2 °F 40.1 °F 89% 29.79 in - SE 21.9 mph - 0.02 in   Unknown
9:00 AM 43.0 °F 33.8 °F 39.7 °F 88% 29.79 in - SE 23.0 mph - 0.04 in   Unknown
10:00 AM 42 °F - 39 °F 86% 29.79 in - SE 20.7 mph - -  
10:00 AM 42.4 °F 33.5 °F 39.2 °F 88% 29.79 in - SE 20.7 mph - 0.05 in   Unknown
11:00 AM 41.9 °F 33.1 °F 39.0 °F 90% 29.81 in - SE 19.6 mph - 0.04 in   Unknown
12:00 PM 41.9 °F 34.0 °F 39.4 °F 91% 29.80 in - SE 16.1 mph - 0.07 in   Unknown
1:00 PM 41.9 °F 33.4 °F 39.0 °F 90% 29.80 in - SE 18.4 mph - 0.02 in   Unknown
2:00 PM 41.9 °F 34.6 °F 38.8 °F 89% 29.81 in - SE 13.8 mph - N/A   Unknown
3:00 PM 41.5 °F 33.8 °F 38.5 °F 89% 29.81 in - SE 15.0 mph - N/A   Unknown
4:00 PM 42 °F - 39 °F 84% 29.84 in - SE 10.4 mph - -  
4:00 PM 41.7 °F 35.6 °F 38.8 °F 89% 29.84 in - SE 10.4 mph - N/A   Unknown
5:00 PM 42.6 °F 39.9 °F 40.1 °F 91% 29.87 in - NW 4.6 mph - 0.03 in   Unknown
6:00 PM 42.8 °F - 38.8 °F 86% 29.88 in - NE 2.3 mph - N/A   Unknown
7:00 PM 42.4 °F 38.8 °F 39.7 °F 90% 29.91 in - SE 5.8 mph - N/A   Unknown
8:00 PM 42.6 °F 38.4 °F 40.5 °F 92% 29.93 in - ESE 6.9 mph - 0.02 in   Unknown
9:00 PM 43.2 °F 39.7 °F 40.5 °F 90% 29.95 in - SE 5.8 mph - N/A   Unknown
10:00 PM 42 °F - 40 °F 88% 29.98 in - SE 5.8 mph - -  
10:00 PM 42.3 °F 38.6 °F 39.6 °F 90% 29.98 in - SE 5.8 mph - N/A   Unknown
11:00 PM 42.4 °F 36.5 °F 38.5 °F 86% 30.00 in - SE 10.4 mph - N/A   Unknown